Location: Newark
(43.0000°N, 1.6781°W)
Time: 09:11:17
(UTC+00:00)

AO-7 - Pass Details

Date: 12 December 2022
Orbit: 1440 x 1459 km, 101.9° (Epoch: 28 January)

Event Time Altitude Azimuth Distance (km) Brightness Sun altitude
Rises 05:22:00 0° 16° (NNE) 4,546 ? -22.3°
Reaches altitude 10° 05:24:47 10° 15° (NNE) 3,567 ? -21.8°
Maximum altitude 05:33:04 74° 293° (WNW) 1,501 ? -20.3°
Drops below altitude 10° 05:41:19 10° 210° (SSW) 3,562 ? -18.8°
Sets 05:44:06 0° 208° (SSW) 4,539 ? -18.4°
